When you browse on this site, cookies collect data to enhance your experience and personalize the content and advertising you see.
Visit our Privacy Policy to learn more. By continuing to use the site, you agree to this use of cookies and data.
  • In Czech Republic
  • List of Countries
  • For 7 days
  • Water Temperature
  • Weather Map
  • Weather Widgets
  • user-avatar
    Login

    Hourly Weather Canillo

    Today, 18 October, Friday

    Time Temperature Precipitation Wind Pressure Humidity
    00:00 +5°C° 0 mm 1 mps 616 mmHg 84%
    01:00 +6°C° 0 mm 1 mps 616 mmHg 82%
    02:00 +5°C° 0 mm 2 mps 616 mmHg 80%
    03:00 +5°C° 0 mm 2 mps 615 mmHg 78%
    04:00 +5°C° 0 mm 2 mps 616 mmHg 80%
    05:00 +6°C° 0 mm 2 mps 616 mmHg 83%
    06:00 +7°C° 0 mm 1 mps 617 mmHg 86%
    07:00 +9°C° 0 mm 1 mps 617 mmHg 81%
    08:00 +10°C° 0 mm 1 mps 618 mmHg 76%
    09:00 +11°C° 0 mm 1 mps 619 mmHg 71%
    10:00 +12°C° 0 mm 1 mps 619 mmHg 68%
    11:00 +13°C° 0 mm 2 mps 619 mmHg 64%
    12:00 +14°C° 0 mm 2 mps 620 mmHg 61%
    13:00 +14°C° 0 mm 2 mps 619 mmHg 63%
    14:00 +13°C° 0 mm 2 mps 618 mmHg 65%
    15:00 +13°C° 0 mm 2 mps 618 mmHg 67%
    16:00 +10°C° 0 mm 2 mps 617 mmHg 74%
    17:00 +9°C° 0 mm 2 mps 616 mmHg 81%
    18:00 +8°C° 0 mm 2 mps 616 mmHg 88%
    19:00 +7°C° 0 mm 2 mps 615 mmHg 88%
    20:00 +7°C° 0 mm 2 mps 615 mmHg 87%
    21:00 +7°C° 0 mm 2 mps 615 mmHg 86%
    22:00 +7°C° 0.1 mm 2 mps 615 mmHg 87%
    23:00 +7°C° 0.1 mm 2 mps 615 mmHg 88%

    Tomorrow, 19 October, Saturday

    Time Temperature Precipitation Wind Pressure Humidity
    00:00 +7°C° 0.1 mm 2 mps 615 mmHg 89%
    01:00 +7°C° 0.1 mm 2 mps 614 mmHg 90%
    02:00 +7°C° 0.1 mm 2 mps 614 mmHg 91%
    03:00 +6°C° 0.1 mm 2 mps 614 mmHg 92%
    04:00 +6°C° 0 mm 2 mps 613 mmHg 92%
    05:00 +6°C° 0 mm 2 mps 613 mmHg 93%
    06:00 +5°C° 0 mm 2 mps 613 mmHg 93%
    07:00 +7°C° 0 mm 2 mps 613 mmHg 86%
    08:00 +8°C° 0 mm 3 mps 614 mmHg 79%
    09:00 +10°C° 0 mm 3 mps 615 mmHg 72%
    10:00 +10°C° 0 mm 3 mps 615 mmHg 68%
    11:00 +11°C° 0 mm 3 mps 615 mmHg 65%
    12:00 +12°C° 0 mm 4 mps 615 mmHg 61%
    13:00 +11°C° 0.1 mm 3 mps 614 mmHg 66%
    14:00 +11°C° 0.1 mm 3 mps 613 mmHg 70%
    15:00 +10°C° 0.1 mm 3 mps 613 mmHg 75%
    16:00 +9°C° 0.2 mm 3 mps 612 mmHg 80%
    17:00 +9°C° 0.2 mm 3 mps 612 mmHg 86%
    18:00 +8°C° 0.2 mm 3 mps 611 mmHg 92%
    19:00 +8°C° 0.3 mm 3 mps 612 mmHg 92%
    20:00 +8°C° 0.3 mm 3 mps 612 mmHg 93%
    21:00 +7°C° 0.3 mm 4 mps 612 mmHg 93%
    22:00 +7°C° 0.2 mm 4 mps 611 mmHg 92%
    23:00 +7°C° 0.2 mm 3 mps 611 mmHg 92%

    Day after tomorrow, 20 October, Sunday

    Time Temperature Precipitation Wind Pressure Humidity
    00:00 +7°C° 0.2 mm 3 mps 611 mmHg 92%
    01:00 +6°C° 0.1 mm 4 mps 610 mmHg 91%
    02:00 +6°C° 0.1 mm 4 mps 610 mmHg 90%
    03:00 +6°C° 0.1 mm 4 mps 610 mmHg 89%
    04:00 +6°C° 1.3 mm 4 mps 610 mmHg 91%
    05:00 +7°C° 1.3 mm 3 mps 610 mmHg 93%
    06:00 +7°C° 1.3 mm 3 mps 610 mmHg 94%
    07:00 +7°C° 2.8 mm 3 mps 610 mmHg 94%
    08:00 +6°C° 2.8 mm 4 mps 611 mmHg 93%
    09:00 +6°C° 2.8 mm 4 mps 611 mmHg 92%
    10:00 +7°C° 0.2 mm 4 mps 611 mmHg 82%
    11:00 +7°C° 0.2 mm 4 mps 612 mmHg 72%
    12:00 +8°C° 0.2 mm 4 mps 612 mmHg 61%
    13:00 +8°C° 0 mm 4 mps 612 mmHg 58%
    14:00 +9°C° 0 mm 3 mps 613 mmHg 55%
    15:00 +8°C° 0 mm 3 mps 613 mmHg 52%
    16:00 +6°C° 0 mm 2 mps 613 mmHg 62%
    17:00 +4°C° 0 mm 2 mps 613 mmHg 73%
    18:00 +3°C° 0 mm 1 mps 613 mmHg 84%
    19:00 +3°C° 0 mm 1 mps 613 mmHg 84%
    20:00 +2°C° 0 mm 1 mps 614 mmHg 84%
    21:00 +2°C° 0 mm 1 mps 614 mmHg 84%
    22:00 +2°C° 0 mm 1 mps 615 mmHg 83%
    23:00 +2°C° 0 mm 1 mps 615 mmHg 82%

    21 October, Monday

    Time Temperature Precipitation Wind Pressure Humidity
    00:00 +2°C° 0 mm 1 mps 615 mmHg 81%
    01:00 +3°C° 0 mm 1 mps 615 mmHg 80%
    02:00 +3°C° 0 mm 1 mps 615 mmHg 79%
    03:00 +2°C° 0 mm 0 mps 616 mmHg 78%
    04:00 +2°C° 0 mm 0 mps 616 mmHg 79%
    05:00 +2°C° 0 mm 0 mps 616 mmHg 81%
    06:00 +2°C° 0 mm 0 mps 616 mmHg 83%
    07:00 +4°C° 0 mm 1 mps 617 mmHg 78%
    08:00 +5°C° 0 mm 1 mps 617 mmHg 74%
    09:00 +6°C° 0 mm 1 mps 618 mmHg 69%
    10:00 +7°C° 0 mm 1 mps 618 mmHg 67%
    11:00 +6°C° 0 mm 2 mps 619 mmHg 65%
    12:00 +7°C° 0 mm 2 mps 619 mmHg 62%
    13:00 +7°C° 0.1 mm 1 mps 618 mmHg 68%
    14:00 +7°C° 0.1 mm 1 mps 618 mmHg 73%
    15:00 +6°C° 0.1 mm 1 mps 618 mmHg 78%
    16:00 +5°C° 0.1 mm 1 mps 617 mmHg 83%
    17:00 +5°C° 0.1 mm 1 mps 617 mmHg 88%
    18:00 +4°C° 0.1 mm 1 mps 617 mmHg 93%
    19:00 +4°C° 0 mm 1 mps 617 mmHg 93%
    20:00 +3°C° 0 mm 1 mps 617 mmHg 92%
    21:00 +3°C° 0 mm 1 mps 618 mmHg 92%
    22:00 +3°C° 0 mm 1 mps 617 mmHg 90%
    23:00 +3°C° 0 mm 1 mps 617 mmHg 89%

    22 October, Tuesday

    Time Temperature Precipitation Wind Pressure Humidity
    00:00 +4°C° 0 mm 1 mps 617 mmHg 87%
    01:00 +3°C° 0.1 mm 1 mps 617 mmHg 88%
    02:00 +3°C° 0.1 mm 1 mps 617 mmHg 88%
    03:00 +3°C° 0.1 mm 1 mps 617 mmHg 89%
    04:00 +3°C° 0.2 mm 1 mps 617 mmHg 90%
    05:00 +3°C° 0.2 mm 1 mps 616 mmHg 91%
    06:00 +3°C° 0.2 mm 1 mps 616 mmHg 92%
    07:00 +4°C° 1.8 mm 1 mps 616 mmHg 92%
    08:00 +4°C° 1.8 mm 1 mps 616 mmHg 93%
    09:00 +4°C° 1.8 mm 1 mps 616 mmHg 94%
    10:00 +5°C° 2.9 mm 1 mps 616 mmHg 94%
    11:00 +5°C° 2.9 mm 1 mps 616 mmHg 94%
    12:00 +5°C° 2.9 mm 1 mps 616 mmHg 94%
    13:00 +5°C° 4.8 mm 1 mps 615 mmHg 94%
    14:00 +5°C° 4.8 mm 1 mps 615 mmHg 95%
    15:00 +3°C° 4.8 mm 2 mps 614 mmHg 96%
    16:00 +4°C° 0.9 mm 1 mps 614 mmHg 96%
    17:00 +4°C° 0.9 mm 1 mps 614 mmHg 96%
    18:00 +4°C° 0.9 mm 1 mps 614 mmHg 96%
    19:00 +5°C° 0.7 mm 1 mps 614 mmHg 96%
    20:00 +5°C° 0.7 mm 1 mps 614 mmHg 96%
    21:00 +4°C° 0.7 mm 2 mps 614 mmHg 96%
    22:00 +5°C° 0.3 mm 1 mps 614 mmHg 96%
    23:00 +6°C° 0.3 mm 1 mps 614 mmHg 96%

    23 October, Wednesday

    Time Temperature Precipitation Wind Pressure Humidity
    00:00 +6°C° 0.3 mm 1 mps 614 mmHg 96%
    01:00 +6°C° 1.5 mm 1 mps 613 mmHg 96%
    02:00 +6°C° 1.5 mm 1 mps 613 mmHg 97%
    03:00 +6°C° 1.5 mm 1 mps 612 mmHg 97%
    04:00 +5°C° 1.5 mm 2 mps 612 mmHg 97%
    05:00 +5°C° 1.5 mm 2 mps 611 mmHg 96%
    06:00 +4°C° 1.5 mm 3 mps 611 mmHg 96%
    07:00 +4°C° 1.2 mm 3 mps 611 mmHg 96%
    08:00 +6°C° 1.2 mm 2 mps 611 mmHg 97%
    09:00 +6°C° 1.2 mm 2 mps 611 mmHg 97%
    10:00 +6°C° 3.7 mm 2 mps 611 mmHg 97%
    11:00 +6°C° 3.7 mm 2 mps 610 mmHg 97%
    12:00 +5°C° 3.7 mm 3 mps 610 mmHg 97%
    13:00 +5°C° 5.3 mm 3 mps 610 mmHg 96%
    14:00 +5°C° 5.3 mm 3 mps 609 mmHg 95%
    15:00 +5°C° 5.3 mm 3 mps 609 mmHg 94%
    16:00 +5°C° 1 mm 3 mps 609 mmHg 95%
    17:00 +4°C° 1 mm 3 mps 609 mmHg 95%
    18:00 +4°C° 1 mm 3 mps 609 mmHg 96%
    19:00 +4°C° 2.8 mm 3 mps 609 mmHg 96%
    20:00 +5°C° 2.8 mm 2 mps 609 mmHg 97%
    21:00 +5°C° 2.8 mm 2 mps 609 mmHg 98%
    22:00 +4°C° 0.9 mm 2 mps 609 mmHg 97%
    23:00 +4°C° 0.9 mm 2 mps 609 mmHg 96%
    Show more